Flag Weather past 2 weeks in Babylon, New York, U.S.A.

Now
35 °F

Sunny.


Feels Like: 26 °F
Forecast: 30 / 37 °F
Wind: 15 mph from Northwest

Location: Republic Airport

Current Time: Nov 21, 2014 at 12:53:00 PM

Latest Report: Nov 21, 2014 at 11:53 AM


Visibility: 10 mi

Pressure: 30.26 "Hg

Humidity: 34%

Dew point: 9 °F

Location of BabylonLocation

Historic Weather in Babylon — Graph

°F

Babylon temperature yesterday

Maximum temperature yesterday: 47 °F (at 10:53 AM)
Minimum temperature yesterday: 33 °F (at 11:53 PM)
Average temperature yesterday: 41 °F

Past Weeks' High & Low Weather Summary

 TemperatureHumidityPressure
High66 °F (Nov 12, 11:53 AM)100% (Nov 12, 7:53 AM)30.39 "Hg (Nov 12, 7:53 AM)
Low23 °F (Nov 19, 4:53 AM)27% (Nov 18, 3:53 PM)29.50 "Hg (Nov 17, 6:53 PM)
Average43 °F62%30.00 "Hg
* Reported Nov 6 11:53 AM — Nov 21 11:53 AM, Babylon, Weather by CustomWeather, © 2014

Note: Actual official high and low records may vary slightly from our data, if they occured in-between our weather recording intervals... More about our weather records

Advertising

Babylon weather history for previous 24 hours

 ConditionsComfort  
Time TempWeatherWind HumidityBarometerVisibility
11:53 AM
Nov 21
35 °FSunny.15 mph34%30.26 "Hg10 mi
10:53 AM34 °FSunny.16 mph37%30.27 "Hg10 mi
9:53 AM32 °FPassing clouds.17 mph40%30.26 "Hg10 mi
8:53 AM31 °FSunny.15 mph40%30.24 "Hg10 mi
7:53 AM30 °FSunny.18 mph41%30.21 "Hg10 mi
6:53 AM29 °FSunny.13 mph45%30.18 "Hg10 mi
5:53 AM29 °FClear.13 mph43%30.14 "Hg10 mi
4:53 AM29 °FClear.12 mph41%30.11 "Hg10 mi
3:53 AM29 °FClear.13 mph41%30.09 "Hg10 mi
2:53 AM30 °FClear.10 mph38%30.06 "Hg10 mi
1:53 AM30 °FClear.12 mph38%30.04 "Hg10 mi
12:53 AM32 °FClear.12 mph35%30.03 "Hg10 mi
11:53 PM
Nov 20
33 °FClear.10 mph38%30.01 "Hg10 mi
10:53 PM34 °FPassing clouds.10 mph37%29.99 "Hg10 mi
9:53 PM36 °FClear.13 mph31%29.97 "Hg10 mi
8:53 PM38 °FClear.16 mph29%29.96 "Hg10 mi
7:53 PM41 °FClear.16 mph29%29.93 "Hg10 mi
6:53 PM42 °FPassing clouds.10 mph36%29.92 "Hg10 mi
5:53 PM43 °FClear.13 mph38%29.89 "Hg10 mi
4:53 PM44 °FClear.15 mph41%29.86 "Hg10 mi
3:53 PM46 °FSunny.20 mph40%29.85 "Hg10 mi
2:53 PM46 °FSunny.18 mph40%29.84 "Hg10 mi
1:53 PM46 °FSunny.16 mph40%29.85 "Hg10 mi
12:53 PM45 °FScattered clouds.17 mph40%29.86 "Hg10 mi
Weather by CustomWeather, © 2014

See weather overviewHow to use our weather pages